Weather History for Newburgh, NY

Change the Weather History Date:

Thursday, April 11, 2013

  Actual Average Record
Temperature  
Mean Temperature 47 °F -  
Max Temperature 55 °F 56 °F 80 °F (2011)
Min Temperature 37 °F 35 °F 21 °F (1975)
Degree Days  
Heating Degree Days 18    
Moisture  
Dew Point 38 °F    
Average Humidity 72    
Maximum Humidity 100    
Minimum Humidity 49    
Precipitation  
Precipitation 0.00 in - - ()
Sea Level Pressure  
Sea Level Pressure 29.99 in    
Wind  
Wind Speed 11 mph (ENE)    
Max Wind Speed 16 mph    
Max Gust Speed 23 mph    
Visibility 12 miles    
Events Rain    
Averages and records for this station are not official NWS values.
T = Trace of Precipitation, MM = Missing Value Source: NWS Daily Summary

Daily Weather History Graph

Daily Weather History Graph

Search for Another Location

Airport:

Trip Planner

Search our weather history database for the weather conditions in past years. The results will help you decide how hot, cold, wet, or windy it might be!

Date:

Astronomy

Apr. 11, 2013 Rise Set
Actual Time 6:22 AM EDT 7:32 PM EDT
Civil Twilight 5:54 AM EDT 8:01 PM EDT
Nautical Twilight 5:20 AM EDT 8:35 PM EDT
Astronomical Twilight 4:44 AM EDT 9:11 PM EDT
Moon 6:51 AM EDT (4/11) 9:06 PM EDT (4/11)
Length of Visible Light 14h 07m
Length of Day
13h 10m
New Moon, 2% of the Moon is Illuminated
Apr 11
New Moon
Apr 18
First Quarter
Apr 25
Full
May 2
Last Quarter
May 9
New

Hourly Weather History & Observations

Time (EDT) Temp. Windchill Dew Point Humidity Pressure Visibility Wind Dir Wind Speed Gust Speed Precip Events Conditions
1:45 AM 55.4 °F - 55.4 °F 100% 29.85 in 4.0 mi ENE 6.9 mph - N/A Rain Light Rain
2:45 AM 48.2 °F - 48.2 °F 100% 29.85 in 6.0 mi East 13.8 mph - N/A   Overcast
3:45 AM 48.2 °F - 46.4 °F 93% 29.87 in 3.0 mi NE 8.1 mph - N/A   Overcast
4:45 AM 48.2 °F - 46.4 °F 93% 29.90 in 6.0 mi NE 11.5 mph 17.3 mph N/A   Mostly Cloudy
6:45 AM 46.4 °F 42.9 °F 42.8 °F 87% 29.95 in 6.0 mi ENE 6.9 mph - N/A   Overcast
7:45 AM 46.4 °F 42.4 °F 42.8 °F 87% 29.96 in 6.0 mi ENE 8.1 mph - N/A   Overcast
8:45 AM 46.4 °F 41.1 °F 42.8 °F 87% 29.99 in 10.0 mi East 11.5 mph - N/A   Overcast
9:45 AM 50.0 °F - 42.8 °F 76% 29.99 in 15.0 mi ENE 11.5 mph - N/A   Mostly Cloudy
10:45 AM 51.8 °F - 41.0 °F 67% 29.99 in 15.0 mi East 13.8 mph - N/A   Mostly Cloudy
11:45 AM 51.8 °F - 39.2 °F 62% 30.01 in 20.0 mi ENE 13.8 mph 23.0 mph N/A   Mostly Cloudy
12:50 PM 53.6 °F - 37.4 °F 54% 30.02 in 20.0 mi NE 13.8 mph 23.0 mph N/A   Mostly Cloudy
1:45 PM 53.6 °F - 37.4 °F 54% 30.02 in 20.0 mi NE 13.8 mph 23.0 mph N/A   Mostly Cloudy
2:45 PM 51.8 °F - 35.6 °F 54% 30.02 in 20.0 mi NE 13.8 mph 20.7 mph N/A   Mostly Cloudy
3:50 PM 50.0 °F - 35.6 °F 58% 30.00 in 20.0 mi ENE 12.7 mph 20.7 mph N/A   Mostly Cloudy
4:45 PM 48.2 °F - 33.8 °F 58% 30.00 in 20.0 mi NE 11.5 mph 18.4 mph N/A   Mostly Cloudy
6:45 PM 44.6 °F 38.8 °F 26.6 °F 49% 30.03 in 20.0 mi ENE 11.5 mph - N/A   Overcast
7:45 PM 42.8 °F 35.1 °F 28.4 °F 57% 30.04 in 10.0 mi ENE 16.1 mph - N/A   Overcast
8:45 PM 41.0 °F 33.5 °F 28.4 °F 61% 30.06 in 10.0 mi ENE 13.8 mph - N/A   Overcast
9:45 PM 39.2 °F 31.2 °F 28.4 °F 65% 30.07 in 10.0 mi ENE 13.8 mph - N/A   Overcast
10:45 PM 39.2 °F 35.0 °F 28.4 °F 65% 30.09 in 10.0 mi ENE 5.8 mph - N/A   Overcast
11:45 PM 37.4 °F 29.8 °F 30.2 °F 75% 30.09 in 10.0 mi East 11.5 mph - N/A   Overcast